CAPE
16 62 107 158 174 85 74 61 21 183 73 131 145 69 23 49 30 29 25 0 0 0 10 28 30 19 36
0 0 0 0 58 118 97 36 39 77 123 35 131 116 65 27 50 31 18 10 4 0 0 19 32 30 24
0 0 0 0 0 0 15 46 60 82 130 154 47 117 97 34 24 38 23 28 12 0 0 6 16 36 34
0 0 0 0 0 0 0 0 2 37 100 129 142 58 125 70 50 29 35 32 28 35 18 20 38 14 23
0 0 0 0 0 0 0 0 0 0 10 56 88 78 87 96 71 25 36 62 50 19 23 33 43 12 27
0 0 0 0 0 0 0 0 0 0 0 0 50 69 96 56 57 37 34 41 41 20 7 20 24 15 21
0 0 0 0 0 0 0 0 0 0 0 0 0 0 59 62 48 33 25 13 18 22 17 15 16 22 15
0 0 0 0 0 0 0 0 0 0 0 0 0 0 0 3 51 32 33 33 16 37 21 10 24 17 17
0 0 0 0 0 0 0 0 0 0 0 0 0 0 0 0 0 9 11 29 47 41 38 20 1 13 15
0 0 0 0 0 0 0 0 0 0 0 0 0 0 0 0 0 0 19 8 12 42 47 31 15 11 1
0 0 0 0 0 0 0 0 0 0 0 0 0 0 0 0 0 0 0 11 2 7 44 45 33 6 1
0 0 0 0 0 0 0 0 0 0 0 0 0 0 0 0 0 0 0 0 8 0 2 22 46 43 16
0 0 0 0 0 0 0 0 0 0 0 0 0 0 0 0 0 0 0 0 0 24 21 0 0 0 0
0 0 0 0 0 0 0 0 0 0 0 0 0 0 0 0 0 0 0 0 0 0 0 0 0 1 2
0 0 0 0 0 0 0 0 0 0 0 0 0 0 0 0 0 1 0 0 0 0 0 0 0 2 0
0 0 0 0 0 0 0 0 0 0 0 0 0 0 0 2 1 1 7 0 0 0 0 2 0 0 0
CIN
-20 -58 -28 -13 -6 -15 -15 -19 -26 -2 -3 -3 -2 -10 -11 -21 -8 -6 -4 -0 -0 -0 -10 -3 -12 -18 -8
-0 -0 -0 -0 -40 -9 -9 -26 -20 -8 -6 -11 -9 -9 -20 -20 -12 -9 -8 -21 -27 -0 -0 -4 -14 -17 -36
-0 -0 -0 -0 -0 -0 -28 -9 -14 -6 -4 -8 -14 -12 -15 -39 -24 -26 -25 -13 -24 -4 -0 -3 -16 -22 -39
-0 -0 -0 -0 -0 -0 -0 -0 -36 -5 -0 -7 -12 -21 -14 -17 -33 -27 -21 -25 -20 -13 -17 -9 -6 -29 -33
-0 -0 -0 -0 -0 -0 -0 -0 -0 -0 -27 -0 -7 -24 -19 -15 -11 -13 -7 -5 -5 -20 -25 -12 -2 -33 -39
-0 -0 -0 -0 -0 -0 -0 -0 -0 -0 -0 -0 -7 -5 -9 -28 -17 -13 -8 -8 -11 -17 -35 -31 -17 -27 -34
-0 -0 -0 -0 -0 -0 -0 -0 -0 -0 -0 -0 -0 -0 -2 -4 -24 -46 -17 -18 -15 -17 -16 -27 -10 -19 -41
-0 -0 -0 -0 -0 -0 -0 -0 -0 -0 -0 -0 -0 -0 -0 -0 -7 -20 -44 -27 -23 -18 -19 -13 -6 -7 -28
-0 -0 -0 -0 -0 -0 -0 -0 -0 -0 -0 -0 -0 -0 -0 -0 -0 -6 -14 -26 -19 -21 -34 -21 -0 -7 -16
-0 -0 -0 -0 -0 -0 -0 -0 -0 -0 -0 -0 -0 -0 -0 -0 -0 -0 -0 -14 -15 -18 -29 -18 -30 -40 -11
-0 -0 -0 -0 -0 -0 -0 -0 -0 -0 -0 -0 -0 -0 -0 -0 -0 -0 -0 -0 -20 -15 -20 -17 -14 -32 -0
-0 -0 -0 -0 -0 -0 -0 -0 -0 -0 -0 -0 -0 -0 -0 -0 -0 -0 -0 -0 -0 -12 -3 -13 -3 -11 -22
-0 -0 -0 -0 -0 -0 -0 -0 -0 -0 -0 -0 -0 -0 -0 -0 -0 -0 -0 -0 -0 -0 -7 -0 -0 -0 -0
-0 -0 -0 -0 -0 -0 -0 -0 -0 -0 -0 -0 -0 -0 -0 -0 -0 -0 -0 -0 -0 -0 -0 -0 -0 -0 -0
-0 -0 -0 -0 -0 -0 -0 -0 -0 -0 -0 -0 -0 -0 -0 -0 -0 -0 -0 -0 -0 -0 -0 -0 -0 -3 -0
-0 -0 -0 -0 -0 -0 -0 -0 -0 -0 -0 -0 -0 -0 -0 -0 -0 -0 -0 -0 -0 -0 -0 -0 -0 -0 -0
Wind_Speed
24 25 26 28 30 25 21 21 22 25 24 22 19 18 15 15 14 13 11 9 8 9 10 9 8 7 7
24 25 26 27 29 31 32 28 27 26 27 25 21 20 17 16 15 15 14 12 12 11 12 10 9 9 9
24 25 25 26 27 28 31 37 32 30 31 30 28 22 18 18 17 17 17 17 17 16 14 14 12 12 12
24 25 25 26 27 27 29 30 28 33 33 33 30 26 24 23 23 23 20 20 19 20 19 16 16 15 14
24 25 25 26 27 28 29 29 30 33 34 37 31 31 30 28 27 26 25 25 24 22 21 20 19 18 18
25 26 28 29 30 31 31 31 31 30 29 30 36 34 35 31 30 28 27 26 26 24 23 24 22 21 21
27 29 31 32 33 33 33 33 33 35 33 31 34 32 35 33 31 30 29 27 27 26 26 27 26 25 24
30 33 34 36 37 37 37 37 36 35 36 36 36 33 34 34 32 32 31 31 30 28 28 29 30 28 27
35 37 38 39 40 42 41 40 40 40 39 38 38 38 36 36 38 26 33 32 33 32 31 31 31 31 31
41 42 43 43 43 44 44 43 43 43 42 43 43 42 40 40 39 40 34 34 33 33 34 32 33 32 32
43 43 45 46 46 46 46 46 46 45 45 46 46 45 43 44 44 43 39 38 35 37 36 35 35 34 34
42 43 44 44 43 44 45 45 46 47 47 47 48 48 44 45 44 44 46 41 41 37 39 36 36 37 36
44 46 48 47 43 44 44 44 45 45 46 47 48 47 46 47 47 45 45 46 48 39 37 36 38 36 38
42 40 38 42 39 40 42 43 43 43 43 44 45 47 48 50 51 49 49 51 49 43 40 39 42 40 42
40 37 36 37 37 38 40 41 40 41 42 42 44 45 47 48 53 51 50 50 53 45 44 40 44 46 39
40 39 38 38 43 39 41 42 44 44 44 43 43 44 47 48 50 52 51 53 50 52 46 53 45 37 41
Wind_Direction
311 309 303 297 290 291 290 288 287 282 280 278 272 267 259 260 258 254 253 262 264 264 262 251 230 216 218
322 315 310 305 300 292 289 288 284 282 278 277 272 267 256 257 254 256 258 263 267 265 261 246 233 224 226
321 319 318 316 311 308 299 287 284 283 278 274 271 266 257 252 253 257 260 264 267 269 258 247 234 244 234
322 320 317 315 313 312 310 303 309 289 282 273 270 265 260 259 259 261 262 260 265 270 260 250 245 244 236
327 323 320 317 314 312 310 309 308 303 299 271 274 267 264 261 262 263 263 262 262 264 258 256 251 244 243
328 325 320 315 312 309 308 307 307 304 302 299 278 276 265 263 262 263 263 261 261 259 255 252 251 248 246
328 321 315 313 310 307 305 304 303 299 298 296 291 288 273 267 263 261 261 260 259 257 255 251 250 248 247
327 320 315 309 306 304 302 301 301 299 296 292 289 291 286 282 266 261 258 258 257 256 254 251 249 250 248
319 315 313 311 305 301 300 298 295 295 293 291 287 284 284 283 281 264 263 258 257 256 252 250 248 249 249
313 311 310 308 306 301 299 297 295 292 291 288 285 282 280 278 280 281 263 257 257 254 252 250 247 247 247
316 314 310 307 304 301 299 296 293 292 288 285 284 281 280 278 274 271 278 261 257 255 251 250 248 246 246
321 318 314 312 309 305 300 297 293 290 288 286 283 280 278 274 271 269 268 273 262 254 250 247 248 247 246
326 321 314 312 313 307 303 300 296 292 289 285 283 280 277 273 271 269 268 266 267 253 251 250 249 249 248
329 327 322 317 318 314 307 302 298 294 291 288 284 280 276 273 270 267 263 261 260 263 250 248 247 250 250
332 331 326 321 320 318 311 306 303 299 294 291 286 282 278 274 269 265 262 259 258 257 260 250 244 250 250
334 331 327 323 318 318 314 308 304 300 296 292 288 284 279 275 270 265 261 258 256 254 255 257 247 249 248